Location: Winthrop
(48.4780°N, 120.1850°W)
Time: 03:30:25
(UTC-08:00)

Vanguard 1 Rocket - Pass Details

Date: 28 November 2023
Orbit: 654 x 4218 km, 34.3° (Epoch: 24 February)

Event Time Altitude Azimuth Distance (km) Brightness Sun altitude
Rises 04:39:41 0° 204° (SSW) 7,939 12.0 -27.1°
Reaches altitude 10° 04:47:57 10° 190° (S) 6,328 11.6 -25.7°
Maximum altitude 04:58:56 19° 154° (SSE) 4,520 11.2 -23.9°
Drops below altitude 10° 05:06:42 10° 115° (ESE) 4,324 11.8 -22.6°
Sets 05:10:43 0° 98° (E) 4,797 12.6 -22.0°
